Waarnemingen

Advertentie
Mijn weer
Florennes, België (6456): temperatuur & dauwpunt: 17.04.2019 08:00:00 - 23.04.2019 08:00:00 (CEST)Florennes, België (6456): windsnelheid & windstoten: 17.04.2019 08:00:00 - 23.04.2019 08:00:00 (CEST)Florennes, België (6456): windrichting: 17.04.2019 08:00:00 - 23.04.2019 08:00:00 (CEST)Florennes, België (6456): luchtdruk: 17.04.2019 08:00:00 - 23.04.2019 08:00:00 (CEST)Florennes, België (6456): zicht: 17.04.2019 08:00:00 - 23.04.2019 08:00:00 (CEST)
Datum & Tijd tt [°C] td [°C] ff [km/u] ff [kn] fx [km/u] fx [kn] dd ppp [hPa] vv [km]
23.04.2019 08:00:00 11,3 2,4 7 4 - - O 998,4 20
23.04.2019 07:00:00 11,3 2,3 7 4 14 8 ONO 998,8 20
23.04.2019 06:00:00 12,0 2,1 11 6 11 6 ONO 999,2 20
23.04.2019 05:00:00 12,6 2,2 11 6 - - ONO 999,5 20
23.04.2019 04:00:00 13,0 2,4 7 4 11 6 ONO 999,9 20
23.04.2019 03:00:00 13,3 2,1 4 2 11 6 N 1000,5 20
23.04.2019 02:00:00 13,3 1,9 7 4 - - ONO 1001,1 20
23.04.2019 01:00:00 14,6 1,3 11 6 11 6 ONO 1001,3 20
23.04.2019 00:00:00 15,0 0,6 7 4 11 6 ONO 1001,7 20
22.04.2019 23:00:00 14,6 1,5 11 6 - - ONO 1002,5 20
22.04.2019 22:00:00 17,2 0,5 11 6 18 10 NO 1002,7 20
22.04.2019 21:00:00 19,3 0,4 11 6 18 10 ONO 1002,2 20
22.04.2019 20:00:00 20,2 1,4 11 6 - - ONO 1002,2 20
22.04.2019 19:00:00 20,6 3,7 11 6 22 12 ONO 1002,2 20
22.04.2019 18:00:00 21,7 3,0 14 8 29 16 NO 1002,7 20
22.04.2019 17:00:00 23,2 0,2 14 8 - - O 1003,1 20
22.04.2019 16:00:00 23,2 0,7 14 8 29 16 ONO 1004,0 20
22.04.2019 15:00:00 22,9 2,5 18 10 29 16 O 1004,7 16
22.04.2019 14:00:00 22,1 -2,4 14 8 - - O 1005,7 19
22.04.2019 13:00:00 21,7 -1,1 14 8 25 14 O 1006,2 20
22.04.2019 12:00:00 20,9 0,5 18 10 32 18 O 1007,2 14
22.04.2019 11:00:00 19,8 0,1 18 10 - - ONO 1008,2 20
22.04.2019 10:00:00 17,6 2,2 7 4 11 6 O 1008,8 20
22.04.2019 09:00:00 13,8 5,7 7 4 7 4 ONO 1009,7 19
22.04.2019 08:00:00 12,6 1,0 4 2 - - N 1010,2 20
22.04.2019 07:00:00 11,1 -0,4 7 4 7 4 ONO 1010,5 20
22.04.2019 06:00:00 12,3 -0,6 4 2 4 2 N 1010,7 20
22.04.2019 05:00:00 11,9 0,3 7 4 - - ONO 1011,5 20
22.04.2019 04:00:00 12,3 0,8 4 2 7 4 N 1012,2 20
22.04.2019 03:00:00 12,8 1,1 4 2 7 4 N 1012,7 20
22.04.2019 02:00:00 14,0 1,2 4 2 - - N 1013,2 20
22.04.2019 01:00:00 14,3 2,3 4 2 4 2 N 1013,8 20
22.04.2019 00:00:00 15,1 2,0 4 2 7 4 N 1014,1 20
21.04.2019 23:00:00 16,3 1,9 7 4 - - ONO 1014,3 20
21.04.2019 22:00:00 16,9 2,8 7 4 11 6 NO 1014,7 20
21.04.2019 21:00:00 16,9 3,9 11 6 22 12 NNO 1014,7 20
21.04.2019 20:00:00 18,7 5,7 14 8 - - NNO 1014,6 20
21.04.2019 19:00:00 20,9 6,1 18 10 25 14 NNO 1014,5 20
21.04.2019 18:00:00 22,5 5,2 14 8 22 12 NNO 1015,0 20
21.04.2019 17:00:00 23,2 6,1 7 4 - - NO 1015,5 20
21.04.2019 16:00:00 22,8 4,8 15 8 25 14 O 1016,2 4,8
21.04.2019 15:00:00 22,5 3,7 7 4 25 14 O 1017,2 12
21.04.2019 14:00:00 22,1 2,5 11 6 - - ONO 1018,0 10
21.04.2019 13:00:00 21,2 3,9 11 6 18 10 O 1018,8 20
21.04.2019 12:00:00 20,5 6,6 11 6 14 8 O 1019,6 5
21.04.2019 11:00:00 17,9 8,0 9 5 - - NO 1020,6 10
21.04.2019 10:00:00 15,8 7,6 4 2 7 4 N 1021,1 18
21.04.2019 09:00:00 13,6 7,0 7 4 7 4 ONO 1021,6 17
21.04.2019 08:00:00 11,9 4,5 4 2 - - N 1022,0 17
21.04.2019 07:00:00 11,0 2,5 4 2 4 2 N 1022,2 19
21.04.2019 06:00:00 11,5 2,8 4 2 4 2 N 1022,6 18
21.04.2019 05:00:00 11,7 2,8 4 2 - - N 1023,1 17
21.04.2019 04:00:00 11,7 3,0 4 2 7 4 N 1023,7 19
21.04.2019 03:00:00 12,3 3,0 4 2 7 4 N 1024,0 20
21.04.2019 02:00:00 13,7 2,6 7 4 - - NO 1024,4 20
21.04.2019 01:00:00 14,1 2,9 7 4 11 6 NNO 1024,9 20
21.04.2019 00:00:00 15,0 3,0 7 4 7 4 NO 1024,9 20
20.04.2019 23:00:00 16,7 2,7 4 2 - - N 1025,0 20
20.04.2019 22:00:00 17,2 2,8 4 2 18 10 N 1025,0 20
20.04.2019 21:00:00 16,7 3,6 11 6 22 12 N 1024,9 20
20.04.2019 20:00:00 19,0 3,9 14 8 - - N 1024,5 20
20.04.2019 19:00:00 20,7 3,9 22 12 32 18 N 1024,7 20
20.04.2019 18:00:00 21,7 4,3 22 12 32 18 N 1024,9 20
20.04.2019 17:00:00 22,1 6,0 18 10 - - N 1025,0 20
20.04.2019 16:00:00 22,1 5,7 14 8 25 14 N 1025,5 19
20.04.2019 15:00:00 22,4 5,3 11 6 29 16 NNO 1026,2 20
20.04.2019 14:00:00 22,2 4,6 9 5 - - ONO 1026,5 3,7
20.04.2019 13:00:00 21,9 6,7 14 8 29 16 NNO 1027,0 20
20.04.2019 12:00:00 21,2 6,3 14 8 25 14 NO 1027,5 20
20.04.2019 11:00:00 19,2 6,7 11 6 - - NO 1028,0 19
20.04.2019 10:00:00 17,2 5,5 4 2 7 4 - 1028,2 10
20.04.2019 09:00:00 14,6 4,7 4 2 7 4 N 1028,5 20
20.04.2019 08:00:00 13,3 2,3 4 2 - - N 1028,4 20
20.04.2019 07:00:00 11,8 1,7 4 2 4 2 N 1028,2 20
20.04.2019 06:00:00 10,8 3,3 4 2 7 4 N 1028,2 20
20.04.2019 05:00:00 13,3 2,6 4 2 - - N 1028,0 20
20.04.2019 04:00:00 13,5 2,4 4 2 4 2 N 1028,0 20
20.04.2019 03:00:00 13,8 2,4 4 2 7 4 N 1027,7 20
20.04.2019 02:00:00 12,6 4,9 4 2 - - N 1028,0 20
20.04.2019 01:00:00 13,5 5,0 2 1 7 4 - 1028,0 10
20.04.2019 00:00:00 14,5 5,0 4 2 18 10 N 1027,9 20
19.04.2019 23:00:00 15,4 5,1 4 2 - - N 1027,4 20
19.04.2019 22:00:00 16,6 5,1 4 2 11 6 N 1027,0 20
19.04.2019 21:00:00 18,7 4,5 7 4 18 10 ZZW 1026,5 20
19.04.2019 20:00:00 20,3 4,1 7 4 - - NNO 1025,7 20
19.04.2019 19:00:00 21,3 4,4 8 4 14 8 NO 1025,2 10
19.04.2019 18:00:00 21,9 5,3 7 4 18 10 NNO 1025,0 20
19.04.2019 17:00:00 22,6 2,7 11 6 - - NO 1025,0 20
19.04.2019 16:00:00 22,5 4,1 7 4 22 12 NO 1025,0 19
19.04.2019 15:00:00 22,2 5,4 11 6 25 14 ONO 1025,2 19
19.04.2019 14:00:00 22,0 6,8 9 5 - - NO 1025,2 10
19.04.2019 13:00:00 20,6 3,6 11 6 22 12 ONO 1025,7 19
19.04.2019 12:00:00 18,7 5,2 18 10 22 12 ONO 1026,0 20
19.04.2019 11:00:00 18,2 5,3 11 6 - - ONO 1026,2 20
19.04.2019 10:00:00 15,7 2,9 11 6 14 8 ONO 1026,2 20
19.04.2019 09:00:00 13,3 5,2 11 6 11 6 ONO 1026,2 20
19.04.2019 08:00:00 11,3 2,4 7 4 - - O 1026,0 20
19.04.2019 07:00:00 10,3 2,1 7 4 7 4 O 1025,7 20
19.04.2019 06:00:00 10,3 2,4 7 4 7 4 ONO 1025,4 20
19.04.2019 05:00:00 10,5 2,6 7 4 - - N 1025,2 20
19.04.2019 04:00:00 11,1 2,5 4 2 7 4 N 1024,7 20
19.04.2019 03:00:00 11,8 2,4 4 2 4 2 N 1024,5 20
19.04.2019 02:00:00 12,6 2,1 4 2 - - N 1024,5 20
19.04.2019 01:00:00 12,5 2,0 7 4 7 4 N 1024,5 20
19.04.2019 00:00:00 13,6 1,9 7 4 11 6 ONO 1024,2 20
18.04.2019 23:00:00 14,1 2,0 7 4 - - ONO 1023,8 20
18.04.2019 22:00:00 13,8 2,2 11 6 11 6 ONO 1023,6 20
18.04.2019 21:00:00 16,2 1,5 7 4 22 12 O 1022,8 20
18.04.2019 20:00:00 18,2 1,2 11 6 - - O 1022,0 20
18.04.2019 19:00:00 20,1 1,9 14 8 25 14 O 1021,2 20
18.04.2019 18:00:00 20,3 0,6 18 10 29 16 ONO 1021,1 20
18.04.2019 17:00:00 20,5 1,3 22 12 - - O 1021,2 25
18.04.2019 16:00:00 20,2 0,7 22 12 32 18 ONO 1021,2 25
18.04.2019 15:00:00 19,7 0,7 22 12 36 19 ONO 1021,6 25
18.04.2019 14:00:00 19,3 0,0 22 12 - - O 1022,2 25
18.04.2019 13:00:00 18,1 1,6 29 16 40 21 O 1022,6 25
18.04.2019 12:00:00 18,1 1,9 25 14 40 21 O 1022,7 25
18.04.2019 11:00:00 15,8 4,2 18 10 - - O 1023,0 25
18.04.2019 10:00:00 13,8 3,5 7 4 11 6 O 1023,1 25
18.04.2019 09:00:00 10,1 5,3 7 4 14 8 O 1023,2 25
18.04.2019 08:00:00 7,9 3,9 7 4 - - O 1023,1 20
18.04.2019 07:00:00 7,0 3,8 7 4 11 6 O 1022,8 20
18.04.2019 06:00:00 7,4 4,6 7 4 11 6 O 1022,5 20
18.04.2019 05:00:00 7,8 5,4 4 2 - - N 1022,7 20
18.04.2019 04:00:00 8,5 6,1 4 2 11 6 N 1022,5 10
18.04.2019 03:00:00 7,8 6,0 8 4 7 4 ONO 1022,3 7
18.04.2019 02:00:00 8,1 6,3 4 2 - - N 1022,7 7
18.04.2019 01:00:00 8,8 6,6 4 2 7 4 N 1022,5 8
18.04.2019 00:00:00 8,8 6,3 4 2 11 6 N 1022,3 9
17.04.2019 23:00:00 9,8 6,8 7 4 - - O 1022,3 11
17.04.2019 22:00:00 9,7 6,6 7 4 7 4 ONO 1022,2 11
17.04.2019 21:00:00 10,8 6,9 4 2 11 6 N 1021,5 12
17.04.2019 20:00:00 11,8 7,3 11 6 - - ONO 1021,1 15
17.04.2019 19:00:00 13,0 7,6 11 6 18 10 ONO 1021,0 15
17.04.2019 18:00:00 13,1 7,9 7 4 14 8 ONO 1021,2 15
17.04.2019 17:00:00 12,6 7,4 4 2 - - N 1021,5 12
17.04.2019 16:00:00 12,6 7,6 4 2 14 8 N 1021,6 12
17.04.2019 15:00:00 12,3 7,4 7 4 14 8 Z 1021,7 10
17.04.2019 14:00:00 11,2 7,3 13 7 - - ZZO 1021,8 9
17.04.2019 13:00:00 11,0 8,2 7 4 14 8 ZZO 1021,8 6
17.04.2019 12:00:00 9,8 7,9 4 2 11 6 N 1022,1 5
17.04.2019 11:00:00 9,4 8,1 7 4 - - ZZO 1021,8 4,0
17.04.2019 10:00:00 8,9 7,5 4 2 7 4 N 1021,6 4,0
17.04.2019 09:00:00 8,6 7,6 4 2 11 6 N 1021,0 3,5
17.04.2019 08:00:00 8,3 7,4 7 4 - - Z 1020,6 3,0

tt = temperatuur
td = dauwpunt
ff = windsnelheid
fx = windstoten
dd = windrichting
ppp = luchtdruk
vv = zicht

Weerstations in de omgeving